Location: Franzen
(48.6167°N, 15.3833°E)
Time: 18:34:25
(UTC+00:00)

Altair - Pass Details

Date: 10 August 2021
Orbit: 1501 x 1682 km, 47.2° (Epoch: 20 September)

Event Time Altitude Azimuth Distance (km) Brightness Sun altitude
Rises 04:23:53 0° 289° (WNW) 4,689 9.6 5.2°
Reaches altitude 10° 04:27:11 10° 282° (WNW) 3,687 9.0 5.7°
Maximum altitude 04:35:30 40° 218° (SW) 2,100 8.0 7.0°
Drops below altitude 10° 04:43:45 10° 153° (SSE) 3,648 9.7 8.3°
Sets 04:47:00 0° 146° (SE) 4,635 10.3 8.8°
